TimeMDT,TemperatureF,Dew PointF,Humidity,Sea Level PressureIn,VisibilityMPH,Wind Direction,Wind SpeedMPH,Gust SpeedMPH,PrecipitationIn,Events,Conditions,WindDirDegrees,DateUTC
12:15 AM,30.2,15.1,53,30.17,10.0,West,4.6,-,N/A,,Clear,280,2014-03-13 06:15:00
12:35 AM,30.2,15.3,54,30.16,10.0,West,4.6,-,N/A,,Clear,280,2014-03-13 06:35:00
12:55 AM,30.9,14.9,52,30.16,10.0,Calm,Calm,-,N/A,,Clear,0,2014-03-13 06:55:00
1:15 AM,28.6,14.7,56,30.16,10.0,Calm,Calm,-,N/A,,Clear,0,2014-03-13 07:15:00
1:35 AM,29.5,15.1,55,30.14,10.0,NW,3.5,-,N/A,,Clear,310,2014-03-13 07:35:00
1:55 AM,27.9,15.1,59,30.14,10.0,West,5.8,-,N/A,,Clear,260,2014-03-13 07:55:00
2:15 AM,29.5,15.1,55,30.13,10.0,West,6.9,-,N/A,,Clear,260,2014-03-13 08:15:00
2:35 AM,25.9,15.4,65,30.12,10.0,WNW,4.6,-,N/A,,Clear,290,2014-03-13 08:35:00
2:55 AM,26.6,14.9,61,30.11,10.0,WSW,5.8,-,N/A,,Clear,250,2014-03-13 08:55:00
3:15 AM,26.4,14.9,62,30.10,10.0,WSW,4.6,-,N/A,,Clear,250,2014-03-13 09:15:00
3:35 AM,29.1,14.5,55,30.09,10.0,West,4.6,-,N/A,,Clear,260,2014-03-13 09:35:00
3:55 AM,25.7,15.3,65,30.08,10.0,West,3.5,-,N/A,,Clear,260,2014-03-13 09:55:00
4:15 AM,24.6,14.7,66,30.08,10.0,WSW,5.8,-,N/A,,Clear,250,2014-03-13 10:15:00
4:35 AM,25.5,14.7,64,30.07,10.0,NW,4.6,-,N/A,,Clear,320,2014-03-13 10:35:00
4:55 AM,22.3,14.0,71,30.07,10.0,Calm,Calm,-,N/A,,Clear,0,2014-03-13 10:55:00
5:15 AM,22.8,14.0,69,30.07,10.0,SSW,3.5,-,N/A,,Clear,210,2014-03-13 11:15:00
5:35 AM,22.1,14.7,73,30.07,10.0,WNW,3.5,-,N/A,,Clear,300,2014-03-13 11:35:00
5:55 AM,20.7,14.4,77,30.07,10.0,Calm,Calm,-,N/A,,Clear,0,2014-03-13 11:55:00
6:15 AM,21.9,14.5,73,30.06,10.0,NW,3.5,-,N/A,,Clear,310,2014-03-13 12:15:00
6:35 AM,20.7,13.5,74,30.06,10.0,Calm,Calm,-,N/A,,Clear,0,2014-03-13 12:35:00
6:55 AM,22.5,15.4,74,30.06,10.0,WSW,3.5,-,N/A,,Clear,250,2014-03-13 12:55:00
7:15 AM,22.5,15.6,75,30.06,10.0,SW,3.5,-,N/A,,Clear,220,2014-03-13 13:15:00
7:35 AM,22.6,15.8,75,30.06,10.0,Calm,Calm,-,N/A,,Clear,0,2014-03-13 13:35:00
7:55 AM,23.4,16.3,75,30.05,10.0,Calm,Calm,-,N/A,,Clear,0,2014-03-13 13:55:00
8:15 AM,28.0,19.2,70,30.04,10.0,Calm,Calm,-,N/A,,Clear,0,2014-03-13 14:15:00
8:35 AM,32.7,21.0,62,30.04,10.0,Calm,Calm,-,N/A,,Clear,0,2014-03-13 14:35:00
8:55 AM,36.9,21.0,53,30.03,10.0,Calm,Calm,-,N/A,,Clear,0,2014-03-13 14:55:00
9:15 AM,40.1,17.8,41,30.03,10.0,ESE,3.5,-,N/A,,Clear,110,2014-03-13 15:15:00
9:35 AM,43.2,15.8,33,30.03,10.0,Calm,Calm,-,N/A,,Clear,0,2014-03-13 15:35:00
9:55 AM,45.7,16.5,31,30.02,10.0,NNE,3.5,-,N/A,,Clear,30,2014-03-13 15:55:00
10:15 AM,46.2,16.2,30,30.00,10.0,Calm,Calm,-,N/A,,Clear,0,2014-03-13 16:15:00
10:34 AM,48.2,16.3,28,29.99,10.0,Calm,Calm,-,N/A,,Clear,0,2014-03-13 16:34:00
10:54 AM,48.6,16.2,28,29.98,10.0,Calm,Calm,-,N/A,,Clear,0,2014-03-13 16:54:00
11:15 AM,50.9,18.1,27,29.96,10.0,ESE,4.6,-,N/A,,Clear,120,2014-03-13 17:15:00
11:35 AM,55.9,18.1,23,29.95,10.0,East,3.5,-,N/A,,Clear,100,2014-03-13 17:35:00
11:55 AM,61.5,11.1,14,29.93,10.0,NNW,5.8,-,N/A,,Clear,330,2014-03-13 17:55:00
12:15 PM,61.5,9.7,13,29.91,10.0,WNW,6.9,-,N/A,,Clear,300,2014-03-13 18:15:00
12:35 PM,62.4,7.9,12,29.90,10.0,West,6.9,-,N/A,,Clear,260,2014-03-13 18:35:00
12:55 PM,62.6,7.7,11,29.89,10.0,Calm,Calm,-,N/A,,Clear,0,2014-03-13 18:55:00
1:15 PM,62.6,8.6,12,29.88,10.0,Calm,Calm,-,N/A,,Clear,0,2014-03-13 19:15:00
1:35 PM,63.0,9.9,12,29.88,10.0,NW,5.8,-,N/A,,Clear,310,2014-03-13 19:35:00
1:55 PM,61.9,10.6,13,29.87,10.0,ENE,5.8,-,N/A,,Clear,70,2014-03-13 19:55:00
2:15 PM,61.0,10.2,14,29.85,10.0,West,13.8,17.3,N/A,,Clear,260,2014-03-13 20:15:00
2:35 PM,60.3,11.1,14,29.85,10.0,West,23.0,26.5,N/A,,Clear,270,2014-03-13 20:35:00
2:55 PM,59.9,10.9,15,29.85,10.0,WSW,21.9,26.5,N/A,,Clear,250,2014-03-13 20:55:00
3:15 PM,59.9,10.9,15,29.85,10.0,WSW,19.6,31.1,N/A,,Clear,250,2014-03-13 21:15:00
3:35 PM,62.2,11.7,14,29.85,10.0,West,17.3,25.3,N/A,,Clear,260,2014-03-13 21:35:00
3:55 PM,64.4,12.6,13,29.84,10.0,SW,20.7,27.6,N/A,,Clear,230,2014-03-13 21:55:00
4:15 PM,64.4,14.0,14,29.84,10.0,WSW,19.6,28.8,N/A,,Clear,250,2014-03-13 22:15:00
4:35 PM,63.5,13.1,14,29.83,10.0,WSW,12.7,25.3,N/A,,Clear,250,2014-03-13 22:35:00
4:55 PM,64.4,13.6,14,29.83,10.0,WSW,12.7,19.6,N/A,,Clear,250,2014-03-13 22:55:00
5:15 PM,63.7,13.1,14,29.83,10.0,West,12.7,23.0,N/A,,Clear,260,2014-03-13 23:15:00
5:35 PM,63.3,13.6,14,29.82,10.0,WSW,16.1,24.2,N/A,,Clear,250,2014-03-13 23:35:00
5:55 PM,62.2,12.6,14,29.82,10.0,WSW,17.3,31.1,N/A,,Clear,250,2014-03-13 23:55:00
6:15 PM,61.2,11.8,14,29.83,10.0,West,13.8,27.6,N/A,,Clear,260,2014-03-14 00:15:00
6:35 PM,58.6,12.2,16,29.82,10.0,West,13.8,20.7,N/A,,Clear,260,2014-03-14 00:35:00
6:55 PM,55.8,12.9,18,29.82,10.0,West,12.7,16.1,N/A,,Clear,270,2014-03-14 00:55:00
7:15 PM,55.2,12.6,18,29.83,10.0,WNW,10.4,16.1,N/A,,Clear,290,2014-03-14 01:15:00
7:35 PM,55.8,12.0,18,29.85,10.0,WNW,6.9,18.4,N/A,,Clear,290,2014-03-14 01:35:00
7:55 PM,51.4,13.1,22,29.85,10.0,WNW,4.6,-,N/A,,Clear,290,2014-03-14 01:55:00
8:15 PM,54.0,11.7,19,29.85,10.0,NW,8.1,-,N/A,,Clear,320,2014-03-14 02:15:00
8:35 PM,53.2,10.8,18,29.86,10.0,Calm,Calm,-,N/A,,Clear,0,2014-03-14 02:35:00
8:55 PM,50.9,12.2,21,29.86,10.0,Calm,Calm,-,N/A,,Clear,0,2014-03-14 02:55:00
9:15 PM,48.4,12.7,24,29.87,10.0,SW,3.5,-,N/A,,Clear,220,2014-03-14 03:15:00
9:35 PM,52.3,14.9,23,29.87,10.0,West,10.4,17.3,N/A,,Clear,280,2014-03-14 03:35:00
9:55 PM,52.7,14.7,22,29.88,10.0,West,8.1,-,N/A,,Clear,260,2014-03-14 03:55:00
10:15 PM,51.8,15.4,24,29.89,10.0,West,5.8,-,N/A,,Clear,260,2014-03-14 04:15:00
10:35 PM,52.2,14.9,23,29.90,10.0,West,6.9,-,N/A,,Clear,270,2014-03-14 04:35:00
10:55 PM,51.1,15.4,24,29.91,10.0,Calm,Calm,-,N/A,,Clear,0,2014-03-14 04:55:00
11:15 PM,50.2,14.9,25,29.92,10.0,West,3.5,-,N/A,,Clear,260,2014-03-14 05:15:00
11:35 PM,47.7,16.0,28,29.93,10.0,Calm,Calm,-,N/A,,Clear,0,2014-03-14 05:35:00
11:55 PM,44.6,18.9,36,29.94,10.0,East,3.5,-,N/A,,Clear,80,2014-03-14 05:55:00